Probability
0 0 0 0 0 0 0 0 0 0 0 0 0 0 0 0 0 0 0 0 0 0 0 0 0 0 0 0 0 0 0 0 0 0 0 0 0 0 0 0 0 0 0
0 0 0 0 0 0 0 0 0 0 0 0 0 0 0 0 0 0 0 0 0 0 0 0 0 0 0 0 0 0 0 0 0 0 0 0 0 0 0 0 0 0 0
0 0 0 0 0 0 0 0 0 0 0 0 0 0 0 0 0 0 0 0 0 0 0 0 0 0 0 0 0 0 0 0 0 0 0 0 0 0 0 0 0 0 0
0 0 0 0 0 0 0 0 0 0 0 0 0 0 0 0 0 0 0 0 0 0 0 0 0 0 0 0 0 0 0 0 0 0 0 0 0 0 0 0 0 0 0
0 0 0 0 0 0 0 0 0 0 0 0 0 0 0 0 0 0 0 0 0 0 0 0 0 0 0 0 0 0 0 0 0 0 0 0 0 0 0 0 0 0 0
0 0 0 0 0 0 0 0 0 0 0 0 0 0 0 0 0 0 0 0 0 0 0 0 0 0 0 0 0 0 0 0 0 0 0 0 0 0 0 0 0 0 0
0 0 0 0 0 0 0 0 0 0 0 0 0 0 0 0 0 0 0 0 0 0 0 0 0 0 0 0 0 0 0 0 0 0 0 0 0 0 0 0 0 0 0
0 0 0 0 0 0 0 0 0 0 0 0 0 0 0 0 0 0 0 0 0 0 0 0 0 0 0 0 0 0 0 0 0 0 0 0 0 0 0 0 0 0 0
0 0 0 0 0 0 0 0 0 0 0 0 0 0 0 0 0 0 0 0 0 0 0 0 0 0 0 0 0 0 0 0 0 0 0 0 0 0 0 0 0 0 0
0 0 0 0 0 0 0 0 0 0 0 0 0 0 0 0 0 0 0 0 0 0 0 0 0 0 0 0 0 0 0 0 0 0 0 0 0 0 0 0 0 0 0
0 0 0 0 0 0 0 0 0 0 0 0 0 0 0 0 0 0 0 0 0 0 0 0 0 0 0 0 0 0 0 0 0 0 0 0 0 0 0 0 0 0 0
0 0 0 0 0 0 0 0 0 0 0 0 0 0 0 0 0 0 0 0 0 0 0 0 0 0 0 0 0 0 0 0 0 0 0 0 0 0 0 0 0 0 0
0 0 0 0 0 0 0 0 0 0 0 0 0 0 0 0 0 0 0 0 0 0 0 0 0 0 0 0 0 0 0 0 0 0 0 0 0 0 0 0 0 0 0
0 0 0 0 0 0 0 0 0 0 0 0 0 0 0 0 0 0 0 0 0 0 0 0 0 0 0 0 0 0 0 0 0 0 0 0 0 0 0 0 0 0 0
0 0 0 0 0 0 0 0 0 0 0 0 0 0 0 0 0 0 0 0 0 0 0 0 0 0 0 0 0 0 0 0 0 0 0 0 0 0 0 0 0 0 0
0 0 0 0 0 0 0 0 0 0 0 0 0 0 0 0 0 0 0 0 0 0 0 0 0 0 0 0 0 0 0 0 0 0 0 0 0 0 0 0 0 0 0
0 0 0 0 0 0 0 0 0 0 0 0 0 0 0 0 0 0 0 0 0 0 0 0 0 0 0 0 0 0 0 0 0 0 0 0 0 0 0 0 0 0 0
0 0 0 0 0 0 0 0 0 0 0 0 0 0 0 0 0 0 0 0 0 0 0 0 0 0 0 0 0 0 0 0 0 0 0 0 0 0 0 0 0 0 0
0 0 0 0 0 0 0 0 0 0 0 0 0 0 0 0 0 0 0 0 0 0 0 0 0 0 0 0 0 0 0 0 0 0 0 0 0 0 0 0 0 0 0
0 0 0 0 0 0 0 0 0 0 0 0 0 0 0 0 0 0 0 0 0 0 0 0 0 0 0 0 0 0 0 0 0 0 0 0 0 0 0 0 0 0 0
0 0 0 0 0 0 0 0 0 0 0 0 0 0 0 0 0 0 0 0 0 0 0 0 0 0 0 0 0 0 0 0 0 0 0 0 0 0 0 0 0 0 0
0 0 0 0 0 0 0 0 0 0 0 0 0 0 0 0 0 0 0 0 0 0 0 0 0 0 0 0 0 0 0 0 0 0 0 0 0 0 0 0 0 0 0
0 0 0 0 0 0 0 0 0 0 0 0 0 0 0 0 0 0 0 0 0 0 0 0 0 0 0 0 0 0 0 0 0 0 0 0 0 0 0 0 0 0 0
0 0 0 0 0 0 0 0 0 0 0 0 0 0 0 0 0 0 0 0 0 0 0 0 0 0 0 0 0 0 0 0 0 0 0 0 0 0 0 0 0 0 0
0 0 0 0 0 0 0 0 0 0 0 0 0 0 0 0 0 0 0 0 0 0 0 0 0 0 0 0 0 0 0 0 0 0 0 0 0 0 0 0 0 0 0
0 0 0 0 0 0 0 0 0 0 0 0 0 0 0 0 0 0 0 0 0 0 0 0 0 0 0 0 0 0 0 0 0 0 0 0 0 0 0 0 0 0 0
Wind_Speed
11 11 10 10 10 11 12 12 13 12 10 7 7 7 7 8 8 9 13 15 16 17 13 7 5 4 4 5 5 4 4 4 3 2 2 3 4 4 4 4 4 6 7
13 13 13 12 13 14 14 15 15 14 12 8 5 3 3 4 5 6 9 12 15 16 14 13 8 6 5 5 5 4 3 3 3 3 1 2 4 2 2 2 4 5 4
13 13 12 12 12 13 14 15 15 15 14 11 6 5 4 4 5 8 10 13 16 16 15 15 12 7 6 5 6 5 6 4 3 3 4 3 4 2 2 1 1 2 3
11 11 12 12 12 11 11 13 14 15 14 12 7 7 7 6 6 6 8 13 15 16 17 16 13 9 6 6 6 5 4 5 3 2 2 2 3 2 1 2 2 2 1
11 11 11 11 10 10 11 11 13 12 13 11 9 8 7 6 7 9 11 12 13 15 17 17 14 10 6 6 6 5 5 4 5 4 3 2 1 2 2 1 1 2 2
12 10 10 11 10 11 11 12 13 12 11 11 11 10 10 12 14 14 12 12 12 13 16 17 14 10 6 5 6 6 7 5 4 4 3 4 3 3 3 2 1 0 2
10 10 12 13 14 14 13 13 14 13 13 13 13 12 12 13 13 14 14 15 13 13 16 16 15 11 6 4 4 5 6 6 5 4 3 3 3 3 3 3 2 1 1
9 10 12 13 14 15 15 14 14 14 15 15 15 13 14 12 12 14 15 15 13 13 17 18 16 12 6 4 4 3 4 4 4 4 4 3 3 3 3 4 4 2 0
9 9 11 12 13 14 14 15 16 17 18 17 16 14 15 15 15 16 15 13 14 15 17 17 17 12 5 4 4 3 3 5 4 4 3 2 2 2 2 3 4 5 3
9 10 12 15 15 15 15 16 18 19 18 18 16 15 16 16 16 16 18 18 18 17 18 17 14 10 5 5 5 4 4 5 4 3 4 2 1 1 1 2 2 3 4
12 13 14 15 16 16 17 18 18 18 18 18 17 17 16 16 16 16 18 18 17 18 17 15 12 9 6 5 6 5 4 5 4 4 4 3 2 1 1 1 2 3 4
9 10 12 14 15 17 17 18 18 18 18 18 18 17 17 17 16 17 19 19 19 17 16 13 8 5 2 2 5 7 6 5 5 5 5 4 3 3 2 1 1 2 3
13 12 13 14 15 16 18 18 18 18 18 17 17 17 17 17 17 17 18 20 20 18 15 12 9 7 5 5 5 6 6 6 6 6 6 5 4 3 2 3 2 1 1
14 15 15 15 15 16 17 17 17 16 17 16 16 16 16 17 17 17 17 18 19 19 17 14 12 11 10 10 9 9 9 8 7 7 7 5 4 4 3 3 3 2 2
15 16 16 16 15 16 15 15 16 16 16 15 14 13 14 14 15 15 16 16 16 17 17 16 14 13 11 11 12 11 11 10 10 9 8 7 8 8 6 5 4 4 3
14 15 16 16 16 15 15 15 15 15 15 15 14 13 13 14 14 14 13 14 14 14 14 15 15 14 12 18 19 13 11 10 10 9 8 9 11 12 12 11 10 8 5
13 14 14 14 14 13 13 14 14 14 14 14 14 14 13 13 13 14 13 13 12 11 11 12 12 13 15 17 15 14 8 7 7 7 7 6 7 9 7 8 10 11 13
11 11 12 13 12 11 11 11 11 12 13 13 14 14 13 13 13 13 13 12 9 9 8 8 9 10 13 16 12 11 6 6 7 7 7 7 7 7 6 6 8 8 8
7 7 8 9 10 11 11 10 10 11 12 13 14 14 13 13 12 13 13 10 9 9 8 5 6 7 11 16 13 11 5 5 6 6 6 6 6 11 11 7 7 8 7
6 7 8 8 10 11 10 9 10 11 12 13 13 13 13 12 11 12 12 10 9 10 10 9 8 8 8 15 14 11 5 5 5 5 6 9 8 10 11 6 5 6 5
7 8 8 7 8 10 10 9 9 11 12 13 13 13 12 12 10 10 10 10 9 9 9 10 10 10 13 15 17 11 4 3 3 3 3 4 8 9 10 8 5 8 6
9 9 8 9 9 9 9 9 10 11 12 13 13 13 12 11 11 10 10 9 9 8 7 7 8 7 9 13 15 17 11 4 2 1 1 3 8 9 10 8 11 12 9
8 7 7 8 8 8 9 9 11 12 13 13 12 11 12 10 11 10 9 9 8 8 6 5 6 6 7 9 17 17 16 11 2 0 1 5 9 9 8 12 13 10 6
6 7 8 8 8 8 10 9 10 12 12 12 11 10 9 10 9 9 9 9 8 9 8 8 7 5 6 6 6 6 6 8 4 3 3 5 8 8 9 9 7 6 6
7 7 7 7 8 8 9 11 11 10 10 10 10 9 9 8 7 8 8 10 7 11 10 7 6 6 5 10 15 9 4 2 0 3 2 2 3 3 4 4 4 4 4
6 7 7 9 9 9 10 10 10 10 9 10 10 8 7 6 6 6 7 13 14 18 18 17 14 9 13 16 17 17 13 7 4 5 3 3 3 2 2 2 2 2 3
Wind_Direction
4 1 357 352 353 353 353 351 348 344 342 342 348 353 355 349 344 342 340 337 335 331 317 289 261 240 231 231 221 209 211 217 202 212 283 287 263 246 240 230 219 211 206
6 1 356 353 353 353 352 351 345 336 330 323 316 314 314 312 316 321 333 334 333 327 323 305 277 242 225 222 212 193 184 202 185 173 199 298 318 304 278 238 222 223 211
4 357 356 353 354 357 354 351 344 339 332 325 320 320 315 314 338 343 339 334 329 324 317 311 290 255 218 209 205 190 176 187 201 181 169 189 233 295 321 328 275 238 213
359 353 355 355 357 354 351 347 344 341 338 336 339 341 346 338 331 327 324 325 324 321 318 314 301 266 226 203 202 190 176 163 177 184 182 186 177 185 285 337 359 7 164
352 348 354 353 350 347 346 342 340 338 340 346 348 345 341 330 325 327 324 322 320 317 316 312 307 281 242 206 191 177 172 167 166 168 162 158 143 144 156 206 346 11 12
347 348 355 352 347 345 344 343 342 341 348 354 353 347 342 336 333 331 325 322 317 313 312 313 306 292 259 221 194 176 169 168 163 161 159 160 159 171 154 166 191 227 339
342 352 357 351 347 345 345 345 345 349 356 357 354 346 344 338 333 331 326 321 315 312 311 313 304 293 262 229 205 171 160 160 160 165 167 164 170 155 147 147 159 175 328
346 358 355 349 345 344 345 346 348 352 355 355 350 345 347 342 335 331 324 317 310 306 305 305 299 288 258 208 193 166 152 143 148 161 159 158 173 163 157 155 145 137 8
346 353 351 349 344 344 346 347 352 354 354 351 346 344 345 340 333 328 321 316 310 305 300 296 292 280 235 176 157 139 132 123 114 117 127 144 168 170 169 155 149 148 167
350 354 356 354 351 351 353 356 359 354 350 348 345 343 340 336 330 326 322 317 310 304 299 291 284 267 220 157 138 122 116 106 101 98 88 79 75 137 166 174 170 158 158
352 354 355 354 353 356 357 355 354 352 348 345 342 341 339 335 331 330 327 322 315 309 304 296 284 260 224 176 147 133 122 113 105 97 89 68 43 38 39 158 168 173 160
348 350 353 354 354 355 354 353 353 350 346 343 342 342 340 336 336 340 339 335 328 320 316 313 298 272 241 180 147 139 132 125 111 98 90 67 62 55 30 66 131 170 179
354 356 355 354 354 355 353 350 350 347 343 342 343 343 343 339 342 346 348 348 345 341 339 346 3 16 30 48 64 84 91 92 95 95 94 85 90 82 62 64 67 65 148
354 355 353 352 354 356 351 346 344 341 340 340 341 343 343 343 346 348 350 354 354 355 358 9 21 27 33 41 51 59 62 63 64 68 75 83 104 110 95 69 50 48 58
353 354 352 350 353 353 347 344 338 337 336 335 335 337 340 341 343 347 350 353 359 2 5 13 22 30 36 43 47 47 48 44 43 42 42 49 65 91 91 84 59 51 51
352 352 351 349 350 348 343 340 337 336 337 337 336 336 341 343 343 344 347 351 356 2 8 14 17 23 33 48 54 57 51 47 41 35 30 36 37 39 46 65 70 69 63
352 352 350 347 344 340 337 334 334 334 339 340 338 339 341 344 345 346 347 348 350 356 6 11 14 13 16 35 48 60 66 64 57 47 39 37 35 38 24 37 55 58 65
354 354 349 342 335 330 331 330 331 336 339 342 342 340 342 343 344 347 347 344 343 348 356 5 8 4 2 18 40 58 67 75 69 59 49 40 25 39 41 56 63 56 52
2 353 344 332 327 328 328 328 333 339 342 343 341 340 340 343 348 347 345 343 344 347 343 350 357 359 358 13 39 52 46 63 64 59 53 45 23 42 54 60 68 60 42
1 350 338 329 331 331 331 328 333 341 342 340 337 338 340 340 348 349 344 343 348 355 357 5 9 6 3 10 28 44 36 50 60 44 27 30 39 53 60 50 60 68 51
357 344 333 326 324 328 333 331 334 340 338 338 338 339 341 339 347 346 345 343 348 354 1 8 12 13 12 7 9 30 52 54 72 54 16 2 31 47 55 53 55 78 76
351 342 335 330 325 326 335 338 339 336 338 338 339 338 341 345 350 341 342 344 346 345 347 355 2 2 360 358 355 7 21 51 78 66 356 13 47 47 48 58 60 61 63
340 333 329 326 326 327 336 338 338 338 340 339 339 338 345 346 346 342 342 343 349 344 342 350 354 351 351 345 351 355 357 8 36 230 148 77 67 56 44 57 56 52 50
335 330 333 332 329 331 340 335 335 340 339 338 338 342 347 346 343 346 349 347 349 349 360 357 349 339 339 334 334 335 339 349 13 38 34 55 77 71 64 56 48 43 60
332 333 327 321 325 331 333 332 335 334 333 334 334 334 344 336 335 341 343 347 341 353 358 351 346 343 335 340 354 356 336 314 23 87 59 52 64 72 72 69 62 57 60
325 324 324 332 332 328 325 324 326 326 327 337 335 330 334 333 334 328 335 343 348 352 355 352 352 348 350 355 4 7 8 11 73 84 61 62 73 84 82 75 63 61 79